Flag for Japan Weather past 2 weeks in Nagoya, Japan

Now
68 °F

Partly sunny.


Feels Like: 68 °F
Forecast: 51 / 59 °F
Wind: 17 mph from Northwest

Location: Nagoya Airport

Current Time: Oct 22, 2014 at 2:04:21 PM

Latest Report: Oct 22, 2014 at 1:30 PM


Visibility: N/A

Pressure: 29.77 "Hg

Humidity: 78%

Dew point: 61 °F

Location of NagoyaLocation

Historic Weather in Nagoya — Graph

°F

Nagoya temperature yesterday

Maximum temperature yesterday: 70 °F (at 2:00 PM)
Minimum temperature yesterday: 63 °F (at 12:00 AM)
Average temperature yesterday: 67 °F

Past Weeks' High & Low Weather Summary

 TemperatureHumidityPressure
High75 °F (Oct 7, 1:00 PM)100% (Oct 9, 12:00 PM)30.33 "Hg (Oct 9, 12:00 PM)
Low54 °F (Oct 18, 3:30 AM)20% (Oct 18, 3:00 PM)29.09 "Hg (Oct 13, 10:00 PM)
Average67 °F75%30.03 "Hg
* Reported Oct 7 1:00 PM — Oct 22 1:00 PM, Nagoya, Weather by CustomWeather, © 2014

Note: Actual official high and low records may vary slightly from our data, if they occured in-between our weather recording intervals... More about our weather records

Advertising

Nagoya weather history for previous 24 hours

 ConditionsComfort  
Time TempWeatherWind HumidityBarometerVisibility
1:00 PM
Oct 22
68 °FPartly sunny.15 mph83%29.77 "HgN/A
12:30 PM66 °FPartly sunny.18 mph83%29.80 "HgN/A
12:00 PM68 °FBroken clouds.20 mph83%29.80 "HgN/A
11:30 AM66 °FBroken clouds.17 mph83%29.80 "HgN/A
11:00 AM68 °FFog.12 mph94%29.80 "Hg3 mi
10:30 AM68 °FFog.3 mph94%29.80 "Hg3 mi
9:30 AM68 °FFog.7 mph94%29.83 "Hg2 mi
9:00 AM68 °FFog.6 mph94%29.80 "Hg2 mi
8:30 AM68 °FFog.2 mph94%29.80 "Hg2 mi
8:00 AM68 °FFog.3 mph94%29.83 "Hg3 mi
7:30 AM68 °FFog.6 mph94%29.80 "Hg3 mi
7:00 AM68 °FFog.3 mph94%29.80 "Hg2 mi
6:30 AM68 °FFog.2 mph94%29.80 "Hg2 mi
6:00 AM68 °FFog.3 mph94%29.80 "Hg2 mi
5:30 AM68 °FFog.3 mph94%29.80 "Hg3 mi
5:00 AM68 °FScattered showers. Fog.6 mph94%29.80 "Hg3 mi
4:30 AM68 °FScattered showers. Fog.3 mph94%29.80 "Hg3 mi
4:00 AM68 °FScattered showers. Fog.3 mph94%29.83 "Hg3 mi
3:30 AM68 °FSprinkles. Fog.3 mph94%29.80 "Hg3 mi
3:00 AM68 °FScattered showers. Passing clouds.5 mph94%29.83 "Hg4 mi
2:30 AM68 °FSprinkles. Partly cloudy.6 mph94%29.83 "Hg4 mi
2:00 AM68 °FPartly cloudy.6 mph94%29.83 "Hg4 mi
1:30 AM68 °FFog.6 mph94%29.86 "Hg3 mi
1:00 AM68 °FFog.3 mph94%29.86 "Hg3 mi
12:30 AM68 °FSprinkles. Fog.5 mph94%29.86 "Hg3 mi
12:00 AM68 °FFog.5 mph94%29.86 "Hg3 mi
11:30 PM
Oct 21
68 °FPassing clouds.5 mph94%29.89 "Hg4 mi
11:00 PM68 °FPartly cloudy.6 mph94%29.92 "Hg4 mi
10:30 PM68 °FPartly cloudy.3 mph94%29.92 "Hg4 mi
10:00 PM68 °FPartly cloudy.3 mph94%29.92 "Hg5 mi
9:30 PM68 °FPartly cloudy.2 mph94%29.95 "Hg5 mi
9:00 PM68 °FPartly cloudy.1 mph94%29.95 "Hg5 mi
8:30 PM68 °FPartly cloudy.1 mph94%29.95 "HgN/A
8:00 PM66 °FPartly cloudy.2 mph94%29.95 "HgN/A
7:30 PM68 °FPartly cloudy.No wind94%29.95 "HgN/A
7:00 PM68 °FPartly cloudy.1 mph88%29.95 "HgN/A
6:30 PM68 °FPassing clouds.3 mph88%29.95 "HgN/A
6:00 PM68 °FPartly cloudy.1 mph88%29.95 "HgN/A
5:30 PM68 °FPassing clouds.2 mph88%29.95 "HgN/A
5:00 PM68 °FPartly sunny.1 mph88%29.95 "HgN/A
4:30 PM68 °FPartly sunny.5 mph88%29.95 "HgN/A
4:00 PM70 °FPartly sunny.3 mph83%29.95 "HgN/A
3:30 PM70 °FPartly sunny.2 mph83%29.98 "HgN/A
3:00 PM70 °FPassing clouds.2 mph83%29.98 "HgN/A
2:30 PM70 °FPassing clouds.3 mph83%29.98 "HgN/A
2:00 PM70 °FScattered clouds.3 mph83%29.98 "HgN/A
Weather by CustomWeather, © 2014

See weather overviewHow to use our weather pages